Regional Weather Roundup
Issued by NWS

Home | Current Version | Previous Version | Graphics & Text | Print | Product List | Glossary Off
Versions: 1 2 3 4 5 6 7 8 9 10 11 12 13 14 15 16 17 18 19 20 21 22 23 24 25 26 27 28 29 30 31 32 33 34 35 36 37 38 39 40 41 42 43 44 45 46 47 48 49 50

000
ASUS43 KDTX 301601
RWRMI
MICHIGAN HOURLY REGIONAL WEATHER ROUNDUP
NATIONAL WEATHER SERVICE DETROIT/PONTIAC MI
1200 PM EDT MON MAY 30 2016

NOTE: "FAIR" INDICATES FEW OR NO CLOUDS BELOW 12,000 FEET WITH NO
SIGNIFICANT WEATHER AND/OR OBSTRUCTION TO VISIBILITY.

MIZ047>049-052>055-059>063-066>070-074>076-081>083-301700-
SOUTHEAST LOWER MICHIGAN

CITY           SKY/WX    TMP DP  RH WIND       PRES   REMARKS
ADRIAN         MOSUNNY   79  57  46 NW8       30.03S
ALMA           MOSUNNY   75  57  54 W10G20    30.01S
ANN ARBOR      MOSUNNY   77  57  50 VRB6      30.02R
CARO           SUNNY     77  56  49 NW14      29.99S
DETROIT CITY   PTSUNNY   77  56  48 CALM      30.00S
DETROIT        MOSUNNY   79  58  48 VRB3      30.02R
FLINT          SUNNY     81  56  42 VRB6      30.00F
GROSSE ILE     CLOUDY    75  64  69 S8        30.00S
HILLSDALE      SUNNY     79  50  36 NW10      30.04S
HOWELL         MOSUNNY   78  55  44 W8        30.02R

CITY           SKY/WX    TMP DP  RH WIND       PRES   REMARKS
JACKSON        MOSUNNY   76  57  51 W6        30.03R
LAMBERTVILLE   SUNNY     81  58  44 NW7       30.02S
LANSING        MOSUNNY   77  57  50 NW7       30.02S
LAPEER         FAIR      76  53  45 W7        30.00S
MASON          MOSUNNY   76  57  52 NW10G17   30.02S
MONROE         MOSUNNY   80  61  53 W7        30.01S
MT. CLEMENS    MOSUNNY   78  58  49 VRB3      30.00R
PONTIAC        MOSUNNY   77  55  46 W10       30.00S
PORT HOPE        N/A     74  57  55 NW10      29.96S
PORT HURON     SUNNY     75  57  53 W8        30.00R
TRI CITIES     MOSUNNY   77  58  51 W12G17    29.99F
MIDLAND        FAIR      77  57  49 W12G17    29.98F
TROY           MOSUNNY   79  54  41 NW6       30.02S
SAGINAW HB     MOSUNNY   77  55  47 W12G17    29.99S
$$
MIZ043>046-050>051-056>058-064>065-071>073-077>080-301700-
SOUTHWEST LOWER MICHIGAN

CITY           SKY/WX    TMP DP  RH WIND       PRES   REMARKS
BATTLE CREEK   MOSUNNY   76  57  51 W6        30.03S
BENTON HARBOR  SUNNY     73  60  63 W7        30.04R
BIG RAPIDS     PTSUNNY   75  55  49 W10       30.00F
COLDWATER      MOSUNNY   80  58  47 NW3       30.03S
FREMONT        FAIR      77  56  49 W10       30.00F
HOLLAND        SUNNY     76  59  55 W7        30.03S
GRAND RAPIDS   MOSUNNY   80  57  45 NW9       30.02S
IONIA          FAIR      77  54  45 NW8       30.01S
KALAMAZOO      SUNNY     78  55  44 NW7       30.03S
LUDINGTON      SUNNY     67  60  77 SW7       30.02S
MARSHALL       SUNNY     78  56  46 W3        30.02S
MOUNT PLEASANT MOSUNNY   76  58  52 W9        29.98F
MUSKEGON       MOSUNNY   76  56  49 SW7       30.02S
SOUTH HAVEN    SUNNY     74  60  60 W6        30.03S
$$
MIZ016>042-301700-
NORTHERN LOWER MICHIGAN

CITY           SKY/WX    TMP DP  RH WIND       PRES   REMARKS
ALPENA         MOSUNNY   75  52  44 NW12G18   29.94F
BEAVER ISLAND  SUNNY     64  55  72 SW8       29.97R
BELLAIRE       SUNNY     73  53  49 SW10G17   29.97F
CADILLAC       MOSUNNY   73  56  53 W8        29.99F
CHARLEVOIX     SUNNY     70  57  63 W12       30.00S
FRANKFORT      SUNNY     67  59  77 SW6       30.00S
GAYLORD        PTSUNNY   70  52  52 NW9       29.98S
GRAYLING       MOSUNNY   74  53  46 W9G21     29.99S
HARBOR SPRINGS MOSUNNY   64  56  75 SW8       29.97S
HOUGHTON LAKE  MOSUNNY   73  55  53 W14G22    30.00S
OSCODA         SUNNY     79  48  33 NW16G28   29.95S
PELLSTON       SUNNY     72  54  53 W15       29.95S
ROGERS CITY    MOSUNNY   73  53  50 W13G23    29.95R
TRAVERSE CITY  MOSUNNY   76  53  44 W15       29.96F
$$
MIZ007>008-015-301700-
EASTERN UPPER MICHIGAN

CITY           SKY/WX    TMP DP  RH WIND       PRES   REMARKS
KINROSS          N/A     70  52  52 W15       29.91S
MACKINAC ISLAN PTSUNNY   64  55  74 SW8G16    29.95R
NEWBERRY       PTSUNNY   68  53  58 W14G23    29.93R
S. S. MARIE    PTSUNNY   68  54  60 W15G21    29.90F
MUNISING         N/A     66  53  63 N9        29.93S
$$
MIZ004>006-011>014-085-301700-
CENTRAL UPPER MICHIGAN

CITY           SKY/WX    TMP DP  RH WIND       PRES   REMARKS
MANISTIQUE     CLOUDY    71  52  50 NW13G21   29.94S
ESCANABA       PTSUNNY   72  52  49 NW9G18    29.95R
MENOMINEE      MOSUNNY   74  52  46 VRB7      29.99S
SAWYER-GWINN   MOSUNNY   70  48  46 MISG      29.95S
$$
MIZ001>003-009>011-084-301700-
WESTERN UPPER MICHIGAN

CITY           SKY/WX    TMP DP  RH WIND       PRES   REMARKS
IRON MOUNTAIN  MOSUNNY   73  46  38 NW21      29.97S
HOUGHTON       SUNNY     66  52  60 W20G26    29.92F
COPPER HARBOR    N/A     64  53  67 NW16G23   29.90S
IRONWOOD       SUNNY     72  45  37 NW13      29.96R
$$

ABBREVIATIONS USED IN REMARKS
   TC - TEMPERATURE IN CELSIUS
  WCI - WIND CHILL INDEX
   HX - HEAT INDEX
  VSB - VISIBILITY





USA.gov is the U.S. government's official web portal to all federal, state and local government web resources and services.